Wind_Speed
12 12 12 12 14 14 13 12 11 10 10 9 9 10 10 10 10 10 10 11 11 12 13 13 14 15 15 15 15 15 14 14 14 14 14 15 15 15 16 16 16 16 17 17 17 17 17 17 17 17 17 17 17 16 16 16 16 16 16 16 16 16 17 17 17 17 17 17 18 18 18 18 18 18 19 19 19 19 19 19 20 20 20 20 21 21
12 11 11 11 11 11 10 10 10 9 9 9 9 9 8 9 9 10 11 12 12 13 13 14 14 14 15 15 15 15 14 14 14 14 14 15 15 16 16 16 16 17 17 17 17 17 17 17 17 17 16 16 16 16 16 16 16 16 16 16 16 16 17 17 17 17 17 17 18 18 18 18 18 19 19 19 19 19 19 20 20 20 20 21 21 21
12 11 11 10 9 9 9 9 9 9 9 9 9 9 9 9 10 11 12 12 13 13 13 13 13 14 14 15 14 14 14 14 14 14 15 15 16 16 16 17 17 17 17 17 17 16 16 16 16 16 16 16 16 16 16 16 16 16 16 16 17 17 17 17 17 17 18 18 18 18 18 18 19 19 19 19 19 19 20 20 20 20 21 21 21 21
12 12 11 9 9 8 9 9 9 9 9 10 10 10 10 11 11 12 12 12 12 12 12 12 13 13 14 14 15 14 14 14 14 15 15 16 16 16 17 17 17 17 16 16 16 16 15 15 15 15 15 15 16 16 16 16 16 16 16 17 17 17 17 17 17 18 18 18 18 18 19 19 19 19 19 19 20 20 20 21 21 21 21 22 22 22
11 11 10 9 8 8 7 7 8 8 9 10 10 11 11 12 12 12 12 12 11 11 11 12 12 12 13 14 15 15 15 14 14 15 15 16 16 16 16 16 16 15 15 15 15 15 15 15 15 15 15 15 16 16 16 16 16 16 16 17 17 17 17 17 17 18 18 18 18 18 19 19 19 19 19 20 20 20 21 21 21 21 22 22 22 22
10 9 8 8 7 7 7 7 8 8 9 9 10 11 11 11 11 11 11 11 11 11 11 11 12 13 14 15 15 15 14 13 14 14 15 15 15 15 15 15 14 14 14 14 14 14 14 15 15 15 16 16 16 16 16 16 16 16 17 17 17 17 17 17 17 17 18 18 18 18 18 18 19 19 19 19 20 20 21 21 21 21 22 22 22 22
9 8 7 7 7 7 7 8 8 8 9 9 10 10 10 10 10 10 10 10 10 10 11 12 12 13 14 14 14 13 13 14 14 15 15 15 14 14 14 14 14 14 14 14 14 14 15 15 15 16 16 16 16 17 17 17 17 17 17 17 17 17 17 17 17 17 17 17 18 18 18 18 18 19 19 19 20 20 20 21 21 21 22 22 22 23
8 8 7 7 7 7 7 8 8 8 9 9 9 9 9 8 8 9 9 9 10 10 11 12 12 12 12 12 12 13 14 15 16 16 15 15 14 14 14 14 14 14 14 14 14 15 15 15 16 16 16 16 17 17 17 17 17 17 17 17 17 17 17 17 17 17 17 17 17 17 17 18 18 18 19 19 19 20 20 21 21 21 22 22 23 23
8 7 6 6 6 7 7 7 8 8 8 8 8 8 8 8 9 9 9 10 9 9 9 10 10 11 11 12 12 13 14 15 15 15 15 14 14 14 14 14 14 14 14 14 14 15 15 15 16 16 16 16 16 17 17 17 17 17 17 16 16 16 16 16 16 16 16 16 16 17 17 17 17 18 18 19 19 20 20 21 21 22 22 23 23 24
7 6 6 6 6 6 7 7 7 7 8 8 9 9 9 9 9 10 10 9 8 7 7 8 10 11 12 13 14 14 15 15 15 14 14 14 14 14 14 14 14 14 14 14 14 14 15 15 15 16 16 16 16 17 16 16 16 16 16 16 16 16 16 16 15 15 15 16 16 16 16 17 17 18 18 19 19 20 20 21 22 22 23 23 24 24
6 6 6 6 6 6 7 7 7 7 8 8 9 9 9 9 9 9 9 8 7 6 7 9 10 12 13 14 14 14 15 16 15 14 13 12 12 12 13 13 13 13 13 14 14 14 15 15 16 16 16 16 16 16 16 16 16 15 15 15 15 15 15 15 15 15 15 15 15 16 16 17 17 18 19 19 20 21 21 22 22 23 23 24 24 25
6 6 6 6 6 6 6 7 7 7 8 8 8 9 9 8 7 7 7 7 7 8 9 10 11 11 12 13 14 15 15 16 15 15 14 13 12 12 12 13 13 14 14 15 16 16 17 17 17 17 17 17 16 16 16 16 16 15 15 15 15 15 14 14 14 15 15 16 16 17 17 18 19 19 20 20 21 21 22 22 23 23 24 24 25 26
6 6 7 7 6 6 6 6 7 7 8 9 9 9 7 5 4 5 6 7 8 10 10 11 11 11 11 12 13 14 15 15 15 14 14 13 13 13 13 14 15 15 16 17 18 19 19 19 19 18 18 17 17 17 17 16 16 15 15 15 14 14 14 15 15 16 16 17 17 18 19 19 20 20 21 21 22 22 22 23 23 24 24 25 25 26
7 7 7 7 6 6 6 7 8 8 8 8 6 5 3 3 4 5 7 8 9 9 9 10 11 11 12 13 13 13 13 13 14 14 14 14 13 13 14 15 16 17 18 20 20 21 21 20 20 20 19 19 19 18 17 16 16 15 15 15 15 15 15 16 16 17 18 18 19 19 20 20 21 21 21 22 22 22 23 23 24 24 25 25 26 26
7 7 6 6 6 6 7 7 7 7 5 4 3 3 4 5 6 7 7 7 7 8 9 10 12 13 13 12 11 11 10 11 13 14 15 15 15 15 15 17 18 19 20 21 22 22 21 21 20 20 20 19 19 18 17 16 16 16 16 16 16 16 17 17 18 18 19 19 20 20 20 21 21 21 22 22 23 23 23 24 25 25 25 25 26 26
7 6 6 6 6 6 5 5 4 4 3 3 4 5 5 5 5 5 5 5 7 8 10 11 12 13 12 11 10 9 9 11 13 15 17 17 17 17 17 18 19 21 22 22 22 22 22 21 20 20 19 19 18 17 16 16 16 17 17 17 18 18 18 19 19 19 20 20 20 21 21 21 22 22 22 23 23 23 23 24 25 25 26 26 26 26
5 5 4 5 4 4 4 4 4 4 5 5 5 5 4 4 3 4 4 6 7 8 9 10 9 9 9 11 11 9 9 11 14 16 18 19 19 19 18 18 20 22 22 22 22 22 21 21 20 19 19 19 18 17 17 17 17 18 18 18 19 19 19 19 20 20 20 21 21 21 22 22 22 22 22 23 23 23 24 24 24 25 25 26 26 26
3 3 3 2 3 3 4 5 5 5 5 5 4 4 3 3 3 4 5 7 8 8 8 9 9 8 8 10 11 10 11 12 15 17 19 20 20 20 19 18 19 21 22 22 22 21 21 20 20 19 19 18 18 17 17 18 18 18 19 19 19 19 19 20 20 20 21 21 21 22 22 22 22 22 22 23 23 23 23 24 24 24 24 25 25 25
2 2 2 2 3 5 5 6 5 5 4 4 3 3 3 4 5 6 7 8 8 9 9 9 10 10 10 12 13 13 13 13 15 18 19 20 21 21 19 18 19 20 21 22 22 21 21 20 19 19 19 18 18 18 18 18 18 19 19 19 19 20 20 20 21 21 21 21 21 22 22 22 22 22 22 22 23 23 23 23 24 24 24 24 25 25
1 2 2 3 4 5 5 4 3 3 3 3 4 4 5 6 6 7 8 9 9 10 10 11 11 11 12 13 14 14 13 14 16 17 19 20 21 20 19 18 18 20 21 22 22 21 20 20 20 19 19 19 19 18 18 18 19 19 20 20 20 21 21 21 21 21 21 21 21 21 22 22 22 22 22 22 23 23 23 23 24 24 24 25 25 26
2 2 2 3 4 4 3 2 2 3 3 4 4 5 6 7 7 8 8 9 9 10 11 11 11 12 13 14 14 15 15 15 16 17 18 19 19 19 18 17 18 19 21 22 21 20 20 20 20 20 20 20 19 19 19 19 20 20 21 21 21 21 22 21 21 21 21 21 21 21 22 22 22 22 22 22 23 23 23 23 23 24 24 25 25 26
3 3 4 4 5 4 4 4 4 5 5 5 6 6 6 7 7 8 8 9 10 11 11 12 12 13 14 15 16 17 18 17 17 17 17 17 18 19 18 16 17 18 20 21 21 21 21 21 21 21 21 21 20 20 20 21 21 21 22 22 22 22 22 22 21 21 21 21 21 22 22 22 22 22 22 22 23 23 23 23 23 24 24 24 25 25
4 5 5 6 6 7 7 7 7 8 8 8 8 8 8 8 8 9 10 11 11 12 12 13 14 16 17 18 19 19 18 17 17 16 15 14 16 18 17 16 16 18 20 21 21 22 23 23 23 22 22 22 21 21 21 22 22 22 22 22 22 22 21 21 21 21 21 21 21 22 22 22 22 22 22 23 23 23 23 23 23 23 24 24 24 25
5 6 6 7 7 8 9 9 10 10 11 11 11 10 10 10 10 10 11 11 12 13 14 15 16 17 18 18 18 17 16 14 13 13 13 13 15 17 17 16 17 18 20 21 22 23 23 24 24 23 23 23 23 23 22 22 22 22 22 21 21 21 21 20 21 21 21 22 22 22 22 22 22 22 22 22 23 23 23 23 23 23 23 23 24 24
8 8 9 9 9 9 10 10 10 11 11 11 11 11 10 10 11 11 11 11 12 13 14 15 15 16 16 15 15 14 13 12 11 11 13 13 15 17 18 17 17 18 20 22 22 22 23 24 24 24 24 24 24 24 23 23 22 21 20 20 20 20 20 20 21 21 22 22 23 23 23 23 22 22 22 22 22 22 23 23 23 23 23 23 24 24
9 9 9 9 9 9 9 9 9 9 9 10 10 11 11 11 11 11 12 12 12 12 13 13 13 14 14 14 13 13 12 11 10 11 12 13 15 17 18 17 17 18 20 22 22 22 22 23 24 25 25 25 25 24 23 22 20 19 19 19 20 20 21 22 22 23 23 23 23 23 23 22 22 22 22 22 22 22 22 23 23 23 23 23 24 24
8 8 7 7 7 8 8 9 9 9 10 10 10 10 11 11 11 12 12 12 11 11 11 11 11 12 14 13 13 13 12 12 11 11 13 14 15 17 18 17 17 18 19 21 22 21 21 22 24 25 25 25 24 23 21 19 18 18 19 20 21 22 23 23 23 23 23 23 22 22 22 22 22 22 22 22 22 22 22 23 23 23 23 23 23 23
8 8 8 7 7 7 8 8 8 9 10 10 10 10 11 11 12 12 12 12 11 11 11 11 11 11 11 12 13 14 14 14 14 14 15 15 15 15 17 17 16 16 18 19 21 22 22 22 22 23 23 23 22 21 20 19 19 20 22 23 24 24 24 23 23 22 22 22 22 22 22 22 22 22 22 22 22 22 22 22 23 23 23 22 22 22
7 7 8 8 8 8 8 8 9 9 9 9 10 10 10 10 12 12 13 12 11 11 11 12 12 11 12 13 15 16 16 15 15 14 13 13 13 14 15 15 14 15 16 18 20 21 20 19 19 19 19 19 19 19 21 22 23 25 26 26 25 24 23 22 22 22 22 22 22 22 22 22 22 22 22 22 22 22 22 22 23 23 22 21 21 21
9 9 9 8 9 9 9 10 10 10 9 9 9 9 9 10 11 12 12 12 11 11 11 12 12 12 12 13 13 12 12 12 10 9 9 10 11 12 14 14 14 15 15 16 15 15 17 18 17 15 16 17 19 21 23 25 26 26 26 26 25 24 23 22 21 21 22 22 22 22 22 22 22 22 22 23 23 23 23 23 23 22 22 21 21 21
11 10 10 10 9 10 10 10 11 10 10 9 9 9 9 10 10 10 11 11 11 11 12 12 12 12 12 11 7 5 6 8 8 7 9 11 12 13 14 15 16 16 15 13 9 8 10 15 17 16 16 18 21 23 24 24 24 24 25 25 26 25 24 22 22 22 22 22 22 22 22 22 22 23 23 23 23 23 23 23 23 22 21 21 21 22
12 11 11 11 10 10 10 10 10 10 10 10 10 10 9 9 9 9 9 10 10 11 12 12 13 13 12 12 9 8 9 11 11 11 11 13 14 15 16 15 15 15 14 13 10 8 6 10 17 21 21 22 22 23 23 23 23 23 24 25 26 26 25 23 22 22 22 22 22 22 23 23 23 23 24 24 24 24 24 23 22 21 21 21 21 22
11 11 11 11 11 11 10 10 10 9 9 9 9 9 9 8 8 8 8 9 10 11 12 13 13 13 13 14 15 15 16 16 15 13 13 13 14 15 15 14 15 15 15 14 14 13 12 14 19 24 24 24 23 22 22 22 23 23 23 24 25 26 25 24 23 23 24 24 24 24 24 24 24 24 24 24 24 24 23 23 22 21 21 21 21 22
11 11 10 10 10 10 10 9 9 9 8 8 9 9 9 8 8 8 8 9 9 10 12 13 13 13 14 14 15 17 17 16 14 12 12 12 13 14 15 15 15 15 15 15 15 15 16 18 20 21 23 24 24 22 22 22 22 22 23 23 24 25 26 25 25 25 25 26 26 26 26 26 26 25 25 24 24 23 23 22 22 21 21 21 22 23
10 10 10 10 10 9 9 8 8 8 8 8 8 9 9 9 9 9 9 9 10 11 12 13 14 14 14 15 15 16 17 16 14 12 12 12 14 14 15 15 15 15 14 15 15 15 15 18 19 20 20 23 24 24 22 21 21 22 22 23 24 25 26 26 27 27 27 27 27 27 27 27 26 26 25 25 24 23 23 23 23 22 22 22 23 23
10 10 9 9 9 9 9 8 8 8 8 8 8 9 9 9 10 10 10 10 11 11 12 13 14 15 16 16 17 18 19 19 17 16 14 14 15 15 16 16 15 15 15 15 16 16 16 17 19 20 20 20 21 23 23 22 22 22 23 23 24 25 26 26 26 27 27 27 27 26 26 26 26 25 25 25 24 24 24 24 24 24 24 23 23 23
9 9 9 9 9 9 9 8 8 8 9 9 9 9 9 10 10 10 11 11 12 12 13 14 15 16 16 18 19 20 21 21 20 19 18 17 17 17 17 18 17 17 16 16 16 17 17 17 18 19 19 18 19 20 23 24 24 24 24 25 25 25 26 26 26 25 25 26 26 26 26 26 25 25 26 26 25 25 25 25 25 24 24 24 23 23
9 9 9 9 8 8 8 8 9 9 9 9 9 9 10 10 11 11 12 12 13 14 14 15 16 17 17 18 19 21 21 22 22 21 21 20 20 20 20 20 20 19 18 18 18 18 17 17 16 16 17 19 20 21 23 24 25 25 26 26 26 26 26 25 24 24 24 24 25 26 26 25 26 26 27 26 26 26 26 26 26 25 25 24 24 24
8 8 8 8 8 8 8 9 9 9 9 9 9 10 10 11 11 12 12 13 14 14 15 15 16 17 18 18 19 20 21 21 22 22 22 22 22 22 22 22 22 21 21 20 20 19 18 18 17 16 16 18 21 23 24 24 24 24 26 27 27 26 25 24 23 23 24 25 25 26 26 26 26 26 26 26 25 25 25 25 25 25 24 24 24 24
7 8 8 8 8 8 8 9 9 9 9 9 10 10 11 12 12 13 13 13 14 14 14 15 16 17 17 18 18 19 20 20 21 21 21 22 22 22 22 22 22 22 22 21 21 20 20 19 20 20 20 20 21 23 24 24 24 24 24 24 25 26 26 25 25 25 25 25 25 26 26 26 25 25 25 25 24 24 25 25 25 25 25 24 24 25
7 8 8 8 8 8 9 9 9 10 10 10 11 11 12 13 13 13 13 14 14 14 14 14 15 16 17 17 18 18 19 19 20 20 20 20 21 21 22 23 23 23 22 22 21 21 21 20 21 22 22 22 23 24 25 25 25 24 23 23 24 27 29 28 27 26 25 25 25 25 25 25 25 25 25 25 25 26 26 26 26 26 26 25 25 24
7 8 8 9 9 9 10 10 10 10 10 10 11 12 12 12 13 13 13 14 14 14 14 14 15 16 17 18 18 18 18 18 18 18 19 19 19 19 21 22 23 23 23 22 22 22 22 22 22 22 22 22 22 23 25 26 26 25 23 23 25 27 28 28 26 24 24 24 25 25 25 26 26 27 27 27 27 27 27 27 26 26 26 25 25 25
8 8 9 9 10 10 10 10 10 10 10 10 11 11 12 12 13 13 14 14 14 14 14 14 15 15 16 17 18 18 18 17 17 17 17 17 17 18 19 20 22 22 22 22 22 22 22 22 22 22 23 22 22 23 25 26 26 26 25 24 24 23 22 25 26 25 25 25 26 26 26 27 27 27 27 27 27 27 27 27 26 26 26 25 25 26
9 9 9 10 10 10 10 10 10 10 10 11 11 12 12 12 12 13 14 14 14 14 14 14 15 15 16 17 18 18 18 17 16 16 16 16 16 16 17 18 20 21 22 22 22 22 22 23 23 23 23 22 22 23 25 26 26 26 26 25 24 23 23 25 27 28 28 27 27 27 27 27 28 28 28 28 27 27 27 26 26 27 26 26 26 26
9 9 10 10 10 10 10 10 10 10 11 11 12 12 13 12 12 12 13 14 14 15 14 15 14 14 15 16 16 17 17 18 17 17 16 16 15 15 16 17 18 19 21 22 23 23 22 22 23 23 23 23 23 23 24 25 26 26 26 25 24 24 25 27 27 27 27 27 28 28 28 28 28 28 27 27 27 27 26 26 25 26 26 26 26 26
9 9 9 9 10 10 10 10 10 11 11 12 12 13 13 13 12 13 13 14 15 15 15 15 14 14 14 15 16 17 17 18 18 18 17 17 16 16 16 16 17 19 20 22 23 23 24 24 24 24 24 23 23 24 25 24 24 25 26 26 25 25 26 26 27 26 26 27 27 28 28 28 27 26 25 25 26 26 26 25 24 24 25 25 25 25
9 9 10 10 10 10 10 11 11 11 12 12 13 13 13 13 13 13 13 14 14 14 14 14 14 14 15 16 16 16 17 18 18 18 18 17 17 17 17 17 18 19 20 22 23 24 25 26 26 26 25 24 24 25 26 25 25 24 25 25 25 24 25 26 26 26 26 26 27 27 28 27 26 25 25 25 25 25 25 24 23 23 23 24 24 25
9 9 10 10 11 11 11 11 11 12 12 13 13 13 13 13 12 13 13 13 13 14 14 14 14 15 16 16 17 16 17 17 18 19 18 18 18 18 18 18 19 20 20 21 23 24 25 26 27 27 27 25 24 25 26 26 26 25 25 25 24 24 25 26 27 27 26 26 27 27 27 25 24 23 24 24 24 24 25 24 24 24 23 23 24 25
9 9 10 10 11 11 11 12 12 12 13 13 14 14 14 13 12 12 13 14 14 14 15 15 15 15 16 16 16 17 17 17 18 18 18 18 18 18 18 19 19 20 20 21 22 23 24 25 25 26 26 26 26 26 27 27 27 26 25 24 24 24 25 26 26 26 25 25 26 26 25 24 23 23 23 23 23 25 26 26 26 25 24 23 24 24
9 9 10 10 11 12 12 12 12 13 13 14 14 14 14 14 14 14 14 15 15 15 15 15 15 15 16 16 17 17 17 17 18 18 18 19 18 18 18 19 19 19 19 20 20 20 20 21 22 22 23 24 25 26 27 28 28 27 26 25 24 24 24 25 26 25 25 24 24 24 24 24 24 23 23 23 24 25 26 26 26 25 24 24 23 24
9 10 10 11 11 12 12 13 13 13 14 14 15 15 15 15 15 15 14 14 14 15 15 15 15 16 16 17 17 17 17 17 17 18 19 19 19 18 18 18 18 18 18 18 18 18 17 16 17 18 20 20 21 23 25 27 27 26 26 25 25 24 24 24 25 25 24 24 23 23 24 24 24 23 23 23 23 24 25 26 26 26 25 24 24 24
Wind_Direction
161 166 173 181 187 191 196 201 205 207 210 213 216 220 224 230 237 242 247 251 256 263 269 276 282 286 289 290 291 292 292 291 291 290 290 290 289 289 288 289 288 289 288 288 288 288 288 288 288 288 287 286 286 286 285 286 285 285 285 285 284 284 284 284 284 284 284 284 284 283 282 284 284 285 286 287 287 286 284 283 282 282 282 282 281 282
153 158 163 172 180 186 191 198 203 207 211 216 222 227 231 234 237 240 244 249 256 263 271 277 282 285 288 290 291 292 293 293 292 291 291 290 291 290 290 290 290 290 289 289 289 289 289 289 289 288 287 287 286 286 285 285 285 285 285 284 284 283 283 283 284 284 284 284 284 284 284 285 285 285 285 286 286 285 285 284 283 283 283 282 281 282
153 158 165 173 181 187 193 198 204 211 217 222 227 231 235 237 239 243 247 254 261 268 274 278 282 285 287 289 290 291 292 292 292 292 291 291 291 291 291 291 290 290 290 289 289 289 289 289 289 288 287 287 286 286 285 285 285 285 284 284 283 283 283 283 283 283 283 284 284 284 284 284 285 285 285 285 284 284 283 283 282 282 282 282 282 282
158 163 171 178 188 197 202 204 207 212 219 225 229 232 236 240 245 250 256 262 268 273 276 279 281 284 285 286 288 290 292 293 293 293 293 293 293 292 292 291 291 290 290 290 290 290 290 289 289 288 287 287 287 286 286 286 285 285 285 284 284 284 283 283 283 283 283 283 283 283 283 283 283 283 283 283 283 282 281 281 281 281 281 281 281 281
164 168 173 179 190 200 206 207 209 214 219 226 231 235 240 246 252 259 266 271 274 276 278 280 281 282 283 285 288 291 294 295 294 294 294 294 294 294 293 293 292 292 292 292 292 291 291 290 290 289 288 288 288 287 287 286 286 286 285 285 285 284 284 284 284 284 283 283 283 283 283 282 282 282 282 282 281 281 281 280 280 280 280 280 280 280
165 169 171 176 185 194 199 203 208 215 222 229 235 240 246 253 260 266 272 276 278 280 281 281 282 282 284 287 290 293 295 294 294 295 296 296 296 295 295 295 295 295 295 294 294 293 292 291 291 290 290 289 289 288 288 288 287 287 286 286 285 285 285 285 284 284 283 283 283 282 282 282 282 281 281 281 280 280 280 280 280 280 279 279 279 279
162 165 169 175 181 188 196 203 210 218 226 233 239 245 250 256 263 269 274 278 280 281 282 282 284 286 288 291 294 295 295 295 296 298 299 299 299 297 297 297 297 296 296 295 294 293 293 292 291 291 291 290 290 290 289 289 289 288 288 287 286 286 286 285 285 284 284 283 283 282 282 281 281 280 280 280 280 279 279 279 279 279 279 279 279 279
159 165 171 177 184 192 202 211 218 225 231 236 240 245 250 257 263 268 273 276 279 281 284 286 288 290 292 294 296 296 297 299 302 304 306 306 304 303 301 299 298 296 295 294 294 293 293 293 293 293 293 293 293 292 292 291 291 290 289 288 287 287 286 286 285 285 284 283 283 282 281 281 280 280 280 280 279 279 279 279 279 279 279 279 279 279
160 166 174 182 191 201 212 220 225 229 233 237 241 246 254 262 268 272 275 277 279 282 286 290 292 292 294 295 297 299 301 305 307 309 308 307 306 306 305 302 299 296 295 294 294 295 295 296 296 297 297 297 297 296 295 294 293 292 291 290 288 288 287 286 286 285 284 283 283 282 281 281 281 281 280 280 280 280 280 279 280 279 279 279 279 279
169 174 182 193 204 213 222 226 228 231 235 241 248 256 264 270 274 277 279 279 281 284 286 289 291 295 297 299 302 304 307 310 311 310 307 305 304 303 303 300 298 297 295 296 296 297 298 299 299 300 300 300 300 299 298 297 296 294 292 291 290 289 288 287 286 286 285 284 284 283 282 282 282 282 281 281 281 281 281 280 280 280 279 279 278 278
184 190 196 206 215 222 228 231 234 240 247 253 260 265 269 270 271 270 268 271 277 283 286 290 294 298 302 306 308 310 311 313 314 313 312 310 308 305 303 301 298 297 296 297 297 298 298 300 301 301 301 301 301 301 300 299 298 296 294 292 290 289 288 287 286 286 286 285 285 284 284 283 283 283 283 282 282 282 281 281 280 279 279 279 278 278
194 200 205 210 215 220 226 234 242 250 256 259 260 261 261 260 259 259 261 270 282 291 296 298 300 302 306 309 311 312 313 314 315 316 317 316 314 312 308 304 300 297 296 295 295 296 297 298 299 300 300 300 300 300 299 298 297 295 294 292 290 289 288 288 287 287 287 287 286 285 285 284 284 284 283 283 282 282 281 281 280 279 279 279 278 278
200 204 206 208 210 215 224 235 245 251 252 249 246 246 248 247 248 257 272 285 293 299 303 304 305 305 306 308 310 312 314 315 316 316 316 315 313 312 309 305 301 298 296 296 295 296 297 298 299 299 298 298 299 299 299 298 296 294 293 291 291 290 289 289 288 288 288 287 287 286 285 284 284 283 283 282 282 281 281 280 280 280 279 279 279 278
208 207 204 203 207 216 228 239 245 246 244 239 235 234 243 260 275 284 292 295 299 302 304 306 308 309 308 310 312 314 316 317 316 315 313 311 309 308 306 303 300 298 297 297 297 297 298 299 300 300 300 301 302 302 302 300 297 294 293 292 291 290 290 290 289 289 288 288 287 286 285 284 284 283 282 282 281 281 280 280 280 280 280 279 279 278
209 205 199 198 207 219 232 241 246 250 251 248 251 268 282 289 292 295 297 298 301 305 306 309 311 312 311 312 316 319 320 318 316 313 311 307 305 303 303 303 300 298 297 297 298 299 301 301 302 302 304 305 306 305 303 300 296 294 293 292 291 291 290 290 290 289 289 288 287 286 285 284 283 283 282 282 281 280 280 281 281 280 280 279 278 278
207 202 198 203 214 226 238 248 259 273 288 291 290 291 293 295 295 296 298 305 310 313 316 319 318 315 312 314 318 322 321 318 315 312 309 306 303 302 303 303 302 300 299 299 299 301 303 305 305 306 307 308 307 305 300 297 294 294 294 293 292 291 291 290 290 290 289 288 287 286 285 285 284 283 282 282 281 281 280 280 280 280 279 279 278 278
206 205 208 217 229 244 262 276 289 295 295 291 287 283 283 288 294 301 306 311 315 318 318 317 316 313 310 312 314 317 320 318 314 311 308 305 303 303 305 304 302 300 300 300 301 303 305 307 308 308 309 308 306 303 299 296 295 295 294 294 293 292 292 291 291 290 289 289 288 287 286 285 285 283 283 282 282 281 280 280 280 280 279 279 278 278
207 213 222 241 262 277 286 291 291 288 283 278 271 265 263 273 288 301 308 313 317 318 313 309 304 301 302 305 306 309 315 315 313 310 307 304 302 303 306 305 301 299 299 300 303 305 308 309 309 309 309 307 304 300 298 297 297 296 296 295 295 294 294 293 292 292 291 290 289 288 287 286 285 284 283 283 282 281 281 280 280 279 279 279 278 278
216 227 248 268 279 280 281 280 278 275 269 264 262 265 272 282 290 298 306 310 310 307 302 298 294 292 293 294 298 303 311 312 311 308 306 302 301 303 305 304 301 300 299 301 304 307 310 311 311 310 309 307 303 300 299 299 299 298 298 297 297 296 295 295 294 293 292 291 290 289 288 287 286 285 284 283 282 282 281 280 280 280 279 278 278 278
240 254 268 276 277 276 273 272 270 267 264 264 268 275 286 291 297 302 306 306 302 296 292 288 287 288 291 293 297 302 307 308 308 306 303 299 299 300 303 303 302 300 300 301 305 309 310 310 310 310 308 307 304 301 300 300 299 299 299 299 298 298 297 296 295 294 294 292 291 290 289 288 287 286 284 284 283 282 282 281 280 280 280 280 280 279
276 287 290 290 289 285 282 278 273 272 270 272 277 284 290 295 300 303 302 300 295 291 287 285 286 289 292 295 297 298 300 303 304 303 299 297 296 297 300 302 302 301 300 302 305 308 309 308 308 307 306 305 303 301 301 300 300 300 300 300 300 299 299 298 297 295 294 293 292 291 290 289 288 287 286 285 284 283 283 282 282 281 281 281 281 280
281 287 286 284 285 285 282 275 272 272 274 279 286 291 295 299 301 300 298 295 291 288 286 286 289 291 293 293 293 293 294 296 296 295 294 293 293 294 299 303 303 302 300 301 304 306 307 306 306 305 304 303 302 301 301 301 301 301 301 301 300 300 299 298 297 296 295 294 293 293 292 291 290 289 288 287 286 285 285 284 284 283 283 282 282 281
270 275 277 278 278 277 275 274 274 275 278 281 284 287 290 294 295 295 294 293 292 291 292 293 293 291 289 288 289 291 293 294 293 290 288 287 289 294 300 304 304 301 299 300 303 305 306 306 305 304 304 303 302 301 301 302 302 302 302 302 301 301 300 299 298 298 297 297 296 296 295 294 293 292 291 290 289 288 287 286 285 285 284 284 283 282
262 264 268 270 271 273 274 277 279 281 284 285 286 286 288 289 289 288 288 288 290 291 293 294 293 291 289 289 290 292 294 297 295 289 284 283 287 292 298 303 304 301 299 300 303 305 306 306 305 304 304 303 303 303 303 303 304 304 303 303 302 301 301 301 301 301 300 300 299 298 297 296 295 294 293 292 290 290 289 288 287 286 285 285 284 283
269 268 268 269 271 275 279 282 284 286 287 288 288 288 289 288 287 284 281 281 284 288 291 293 292 291 290 292 293 294 296 298 296 290 284 285 288 291 296 300 302 301 299 300 303 305 306 305 304 304 304 304 304 304 305 306 307 306 305 304 303 303 303 303 303 303 302 301 300 299 298 297 296 295 294 293 292 291 290 289 288 287 286 286 285 284
284 279 277 276 278 280 281 282 281 281 282 282 284 285 287 286 285 282 280 280 283 287 291 291 289 289 291 293 294 295 297 299 295 290 286 287 290 292 294 297 299 299 298 300 303 305 305 303 303 304 304 304 306 308 309 310 309 307 306 305 304 304 304 304 303 303 302 301 300 300 299 298 297 297 296 295 294 293 292 291 290 289 288 287 286 285
310 305 299 293 289 286 283 281 279 278 276 276 277 279 281 282 282 280 279 280 284 287 288 287 288 290 293 294 293 294 297 298 295 289 286 287 289 290 291 294 297 298 298 300 302 304 303 301 301 302 303 305 308 311 312 311 309 307 305 304 304 304 304 303 303 303 302 301 301 300 300 299 298 298 298 297 296 296 295 294 293 292 291 290 288 286
329 325 320 313 304 298 294 290 286 282 280 279 277 277 277 277 277 276 276 279 283 285 284 283 285 290 292 293 293 294 295 294 291 288 287 285 282 282 287 293 297 299 301 302 303 303 302 299 299 301 304 307 310 311 311 309 307 305 305 305 305 305 305 305 304 303 302 302 301 301 300 300 300 299 299 299 299 298 297 297 296 296 295 293 291 288
317 315 314 310 306 302 298 295 292 290 287 286 284 281 278 275 273 273 275 278 281 282 280 280 281 284 288 292 294 295 294 291 290 293 294 285 278 280 289 296 301 304 308 309 309 307 303 300 300 303 305 308 308 307 306 306 306 307 308 309 310 309 309 307 305 304 303 302 302 301 301 301 301 301 300 300 300 300 299 299 299 299 297 295 292 290
303 303 303 301 299 297 296 294 294 294 291 289 288 286 281 274 271 272 274 276 276 276 275 276 278 281 286 292 296 296 293 291 296 306 308 300 293 292 298 302 305 308 313 315 314 310 306 304 303 304 305 306 306 305 305 307 309 311 312 312 312 311 310 308 306 305 304 303 302 302 302 302 302 301 301 301 301 300 300 300 300 299 298 296 293 291
309 308 305 302 300 297 296 294 295 295 292 290 288 285 282 276 274 273 274 272 271 269 269 272 275 277 281 287 292 293 289 289 295 306 310 312 306 301 303 305 305 306 310 312 313 311 308 307 306 306 307 307 306 306 308 309 310 311 311 311 311 311 310 309 308 306 305 304 303 303 302 302 302 301 301 301 300 300 299 300 300 299 297 295 293 291
312 311 308 306 303 301 299 298 297 297 295 293 291 289 287 283 280 278 276 272 269 266 266 269 271 274 275 274 272 272 276 282 288 295 303 307 303 299 300 301 302 303 304 303 299 295 299 303 304 306 307 307 307 307 308 308 308 308 308 309 309 309 309 309 308 307 305 304 304 303 302 301 301 300 300 299 299 299 298 299 298 297 296 294 292 289
307 307 306 305 305 305 304 304 303 301 300 298 297 295 293 289 285 281 276 272 268 266 266 268 271 274 274 272 271 271 274 279 285 293 300 301 299 297 298 298 299 300 301 300 295 289 285 290 297 303 305 305 305 305 306 306 306 307 308 308 308 308 308 308 307 306 305 304 303 302 302 301 301 301 300 300 299 298 298 297 297 296 294 292 291 289
303 303 305 306 307 308 309 308 307 305 302 299 297 295 293 290 285 280 275 272 269 266 265 267 270 273 276 276 275 274 275 278 283 291 296 297 296 296 296 297 298 299 302 301 298 293 289 289 294 300 303 304 304 304 304 305 306 307 308 308 306 306 306 305 305 304 303 303 302 302 302 302 302 302 301 301 299 299 298 297 296 295 293 292 291 291
302 304 308 310 311 312 311 310 307 303 300 297 294 293 290 287 283 279 277 275 273 271 268 267 267 269 272 274 276 277 277 279 283 288 291 293 294 296 296 295 296 298 300 299 298 297 295 293 294 297 301 303 304 304 304 305 306 308 308 306 304 303 303 303 303 303 303 303 302 302 302 303 303 302 302 301 300 298 297 296 295 294 293 291 291 291
305 308 312 313 313 313 313 311 308 303 298 295 293 291 289 287 284 282 280 279 277 275 273 270 268 267 267 269 271 274 277 280 284 286 287 287 289 290 291 290 291 293 295 294 294 294 294 295 295 296 297 299 302 303 305 306 308 308 307 305 304 302 302 302 302 302 303 302 302 301 302 302 302 301 301 300 299 297 296 295 294 293 292 291 289 288
309 311 312 313 313 313 313 311 308 303 299 295 293 293 291 290 289 287 285 283 281 278 276 274 272 270 268 268 269 272 275 279 282 284 284 283 282 282 282 283 284 286 286 287 289 291 292 293 295 295 295 294 296 300 304 307 308 308 306 305 304 303 302 302 303 303 302 301 301 301 301 301 300 300 299 299 298 297 296 295 294 293 292 290 288 287
309 310 311 312 313 313 311 309 304 300 298 296 296 295 294 292 291 289 287 285 283 281 279 278 277 275 273 272 272 273 275 278 280 281 281 280 279 278 277 278 279 280 279 279 281 284 286 288 291 293 294 293 293 295 299 303 306 306 305 306 305 303 302 303 303 304 302 301 300 299 299 299 299 299 298 299 298 297 296 295 294 294 292 291 289 288
309 309 309 310 310 309 307 304 301 299 298 297 296 295 294 293 291 289 288 287 286 285 283 282 281 280 279 278 277 277 277 278 279 280 281 280 279 277 275 274 276 277 278 277 276 276 277 279 281 285 288 292 294 295 297 298 300 302 304 306 306 304 303 303 304 303 301 300 299 298 299 299 299 299 298 298 297 296 294 293 293 293 292 291 290 289
305 304 304 303 302 301 300 297 297 297 297 297 296 295 295 294 294 293 292 291 290 289 287 287 286 285 284 283 282 280 280 281 282 283 284 283 281 279 276 273 273 275 277 276 274 272 270 271 274 277 281 284 288 292 294 295 296 298 301 303 304 303 303 304 304 302 300 299 298 297 298 299 299 298 297 296 295 293 292 291 291 291 291 290 289 288
299 299 298 298 297 295 292 290 290 292 294 296 296 295 295 296 297 296 295 294 293 293 292 293 292 291 290 288 285 284 284 285 286 287 287 287 286 284 280 276 274 274 275 275 273 271 269 269 271 274 277 279 283 286 288 290 292 294 296 296 296 298 300 301 301 300 300 299 299 298 299 299 299 298 296 295 293 292 291 289 289 289 289 288 286 284
294 294 294 294 292 290 288 289 291 292 294 294 294 294 294 296 296 295 295 294 294 293 293 295 295 294 293 291 289 287 287 288 290 290 290 290 289 288 285 281 278 276 274 274 273 271 270 270 270 272 275 277 280 283 286 287 289 290 290 290 292 296 298 299 299 299 299 299 299 299 299 298 298 297 296 294 293 291 291 289 288 287 286 284 282 280
288 289 289 288 288 289 293 297 299 298 297 295 293 292 292 292 292 292 293 292 292 292 292 293 293 293 292 291 291 292 292 292 292 292 292 291 291 289 288 286 283 280 276 273 272 272 273 272 271 270 272 274 276 278 282 286 288 288 288 288 290 293 295 296 298 299 299 298 298 298 297 297 296 295 295 294 292 291 290 288 288 288 283 281 279 277
284 286 286 286 288 293 298 299 298 296 295 293 293 292 293 293 293 293 291 289 289 290 291 292 293 292 290 290 292 295 297 296 295 293 292 291 290 289 287 287 286 283 279 273 271 272 276 276 274 273 274 274 275 276 279 282 285 286 286 286 286 285 284 288 293 296 297 296 295 295 295 295 295 295 294 293 292 290 289 287 285 284 282 280 278 276
287 285 285 288 294 298 299 297 295 294 293 293 294 295 296 297 299 297 291 289 289 290 290 292 292 291 289 290 292 296 299 299 298 296 295 294 293 291 289 287 285 283 280 276 272 271 273 275 277 278 278 277 274 273 275 278 281 283 284 285 284 282 281 283 286 289 291 292 293 293 293 293 293 293 292 291 290 289 288 286 284 282 281 280 278 276
282 284 288 293 296 297 295 295 295 295 295 295 296 297 299 301 301 298 293 291 290 290 290 290 288 286 286 289 293 296 298 300 300 300 299 299 298 296 292 289 286 284 281 279 275 273 272 272 275 278 280 279 276 274 273 275 277 280 282 283 284 284 284 284 284 285 286 288 289 290 291 292 291 289 287 287 288 288 289 286 284 282 282 281 279 277
283 288 292 294 294 294 294 296 297 297 297 297 298 299 300 302 302 299 295 292 290 290 290 289 286 283 283 287 290 293 295 297 298 299 301 300 300 298 296 293 290 287 284 281 279 276 274 273 273 274 275 277 277 277 277 276 276 277 280 282 283 283 283 284 284 285 285 285 286 287 289 289 289 288 286 286 288 289 289 288 287 285 284 283 281 279
287 290 292 293 293 293 294 297 298 298 296 296 298 300 300 301 299 296 294 293 293 292 292 290 287 285 284 285 287 288 291 292 294 296 298 299 299 299 297 295 293 290 288 284 282 279 276 274 272 270 269 270 272 275 277 277 276 276 277 279 281 281 281 282 284 285 285 284 284 285 286 285 284 284 286 288 289 290 290 290 290 288 286 284 282 281
288 290 290 292 292 292 292 294 295 295 293 295 296 297 299 299 297 295 293 293 292 290 288 286 284 284 284 284 286 287 289 290 291 292 294 296 298 298 297 296 296 294 292 289 285 283 280 277 274 269 265 263 264 268 272 275 275 275 276 277 277 278 279 280 283 285 285 285 285 286 286 285 283 284 286 288 289 290 291 291 291 290 288 286 284 282
289 288 288 289 289 288 289 290 291 291 291 292 293 294 296 298 297 296 294 292 290 286 283 281 280 281 283 285 286 288 289 289 289 290 292 294 296 296 295 296 297 297 296 294 292 290 287 285 282 277 270 264 261 262 265 270 273 275 275 275 275 276 277 279 282 284 285 286 288 288 289 289 288 288 288 288 288 289 290 291 290 290 289 288 286 283
288 287 287 286 285 285 286 287 288 288 288 289 290 292 293 295 296 296 295 292 288 285 282 280 279 279 281 284 285 286 287 287 287 288 290 293 295 294 293 294 295 296 297 297 297 296 295 293 291 289 284 275 266 261 261 265 270 274 276 277 277 277 278 280 282 285 287 288 290 291 292 292 291 289 288 287 288 288 289 290 290 290 290 289 288 286
Height
802 803 804 805 807 807 808 808 809 810 811 811 812 812 813 813 813 813 813 813 812 812 812 811 811 811 811 811 811 811 812 812 812 812 812 812 812 811 811 811 810 810 810 809 809 809 809 808 808 808 807 807 807 807 806 806 805 805 805 805 805 805 805 805 805 805 805 805 805 805 804 804 804 804 803 803 803 803 803 803 803 802 802 802 802 802
803 804 805 806 806 807 807 808 809 809 810 811 811 812 812 812 812 812 812 812 811 811 811 810 810 810 810 810 810 810 811 811 811 811 811 811 810 810 809 809 809 809 808 808 808 807 807 807 807 807 806 806 806 805 805 805 804 804 804 804 804 804 804 804 803 803 803 803 803 803 803 803 802 802 802 802 802 802 801 801 801 801 801 801 801 801
803 804 805 805 806 806 807 807 808 809 810 810 810 811 811 811 811 811 811 811 810 810 810 809 809 809 809 809 809 810 810 810 810 810 809 809 809 808 808 808 807 807 807 807 806 806 806 806 805 805 805 805 804 804 804 803 803 803 803 802 802 802 802 802 802 802 802 802 802 802 801 801 801 801 800 800 800 800 800 800 800 800 799 799 799 799
802 803 804 804 805 806 807 807 808 809 809 810 810 810 810 810 810 810 810 810 809 809 809 808 808 808 808 808 809 809 809 809 809 808 808 808 807 807 807 807 806 806 806 805 805 805 804 804 804 804 804 804 803 803 803 802 802 802 802 801 801 801 801 801 801 800 800 800 800 800 800 799 799 799 799 799 798 798 798 798 798 798 797 797 797 797
802 802 803 804 804 805 806 807 808 808 809 809 809 809 809 809 809 809 809 809 808 808 808 808 808 808 808 808 808 808 808 808 808 807 807 807 806 806 806 805 805 804 804 804 803 803 803 803 803 803 803 802 802 802 802 801 801 801 800 800 800 800 799 799 799 799 799 798 798 798 798 798 797 797 797 797 797 797 796 796 796 796 796 796 795 795
801 802 802 803 804 805 806 807 807 808 808 808 809 809 809 808 808 808 808 808 807 807 807 807 807 807 807 807 807 807 807 807 807 807 806 805 805 804 804 804 803 803 802 802 802 802 802 802 802 802 802 801 801 801 800 800 800 799 799 799 798 798 798 798 797 797 797 797 797 797 796 796 796 796 795 795 795 795 794 794 794 794 794 794 794 794
801 802 802 802 803 804 805 806 807 807 808 808 808 808 808 808 808 807 807 807 807 807 807 807 807 807 807 807 807 807 806 806 806 805 804 804 803 803 802 802 802 802 801 801 801 801 801 801 801 801 800 800 800 799 799 799 798 798 797 797 797 797 797 796 796 796 796 795 795 795 795 794 794 794 793 793 793 793 792 792 792 792 792 792 792 792
801 801 802 802 803 804 805 806 806 807 807 807 807 807 807 807 807 807 807 806 806 806 806 806 806 806 806 806 806 806 805 805 804 803 803 802 802 801 801 801 800 800 800 800 800 800 800 800 800 799 799 799 798 798 798 797 797 797 796 796 796 795 795 795 794 794 794 794 793 793 793 792 792 792 792 792 791 791 791 791 791 791 790 790 790 790
800 801 802 802 803 804 805 806 806 806 807 807 807 807 807 806 806 806 806 806 806 806 806 806 805 805 805 805 805 805 804 803 803 802 801 801 800 800 800 799 799 799 799 799 799 799 799 799 799 798 798 798 797 797 797 796 796 795 795 795 794 794 793 793 793 793 792 792 792 792 791 791 791 790 790 790 790 789 789 789 789 789 789 789 789 789
800 801 801 802 803 804 805 805 806 806 806 806 806 806 806 806 805 805 805 805 805 805 805 805 805 805 804 804 804 803 803 802 802 801 801 800 799 799 799 799 798 798 798 798 798 798 798 798 797 797 797 796 796 796 795 795 794 794 793 793 793 792 792 792 792 791 791 791 790 790 790 789 789 789 789 788 788 788 788 787 787 787 787 787 787 787
800 801 802 802 803 804 805 805 805 805 805 805 805 805 805 805 805 805 804 804 804 805 805 805 804 804 803 803 802 802 802 801 800 800 799 799 798 798 798 798 798 797 797 797 797 797 797 797 796 796 795 795 795 794 794 793 793 792 792 792 791 791 791 790 790 790 789 789 789 788 788 788 788 787 787 787 787 787 786 786 786 786 785 785 785 785
800 801 802 802 803 804 804 804 805 805 805 805 805 804 804 804 804 804 804 804 804 804 804 803 803 803 803 802 802 801 800 800 799 798 798 797 797 797 797 797 797 797 796 796 796 796 795 795 795 794 794 793 793 793 792 792 791 791 791 790 790 790 789 789 789 788 788 788 787 787 787 787 786 786 786 785 785 785 785 784 784 784 783 783 783 783
800 801 802 802 803 803 804 804 804 804 804 804 804 804 803 804 804 804 804 803 803 803 803 802 802 802 802 802 801 800 799 799 798 797 797 797 797 796 796 796 796 795 795 795 794 794 794 794 793 793 792 792 792 791 791 790 790 790 789 789 789 788 788 788 787 787 787 787 786 786 786 785 785 784 784 784 783 783 783 782 782 782 782 782 781 781
800 801 802 802 802 803 803 803 803 803 803 803 803 803 803 803 803 803 803 803 802 802 802 802 801 801 801 801 800 800 799 798 797 797 796 796 796 796 796 795 794 794 793 793 792 792 792 792 792 791 791 791 790 790 789 789 788 788 788 787 787 787 787 787 786 786 785 785 785 784 784 783 783 783 782 782 782 781 781 781 780 780 780 780 779 779
801 801 802 802 802 802 802 802 803 803 803 803 803 802 802 802 802 802 802 802 802 802 801 801 800 800 800 800 800 799 799 798 797 796 796 795 795 795 795 794 793 792 792 792 791 791 791 791 790 790 789 789 788 788 788 787 787 787 787 787 786 786 786 785 785 784 784 783 783 783 782 782 782 781 781 780 780 780 779 779 778 778 778 777 777 777
800 801 801 802 802 802 802 802 802 802 802 802 802 802 802 802 802 802 802 802 801 801 801 800 800 799 799 799 799 799 798 798 797 796 795 794 794 794 794 793 792 791 790 790 790 789 789 789 788 788 788 787 787 787 787 786 786 786 785 785 785 784 784 784 783 783 782 782 782 781 781 780 780 779 779 778 778 778 777 777 777 776 776 776 775 775
800 801 801 801 802 802 802 802 802 802 802 802 802 802 802 802 801 801 801 801 801 801 801 800 800 799 798 798 798 798 798 797 797 795 794 793 792 792 793 792 791 790 789 789 788 788 787 787 787 787 786 786 786 785 785 785 785 784 784 784 783 783 782 782 782 781 781 780 780 779 779 778 778 777 777 777 776 776 775 775 774 774 774 773 773 773
800 801 801 801 801 801 801 801 801 801 801 801 801 801 801 801 801 801 801 801 801 801 800 800 800 800 799 798 797 797 798 797 796 795 793 792 791 791 791 791 790 789 787 787 787 787 786 786 786 785 785 785 784 784 784 784 783 783 782 782 782 782 781 781 780 780 779 778 778 777 777 777 776 776 775 775 774 774 773 773 772 772 772 771 771 770
800 801 801 801 801 801 801 801 801 801 801 800 800 800 800 800 800 800 800 800 800 800 800 800 800 799 799 798 797 797 797 797 796 794 792 791 790 789 790 790 789 787 787 786 785 785 785 785 784 784 784 783 783 783 782 782 782 782 781 781 780 780 779 779 778 778 777 777 776 776 775 775 774 774 773 773 772 772 771 771 770 770 769 769 769 768
800 800 801 801 801 801 801 801 800 800 800 800 800 800 800 800 800 800 800 800 800 800 800 800 799 798 798 797 796 796 797 796 796 794 792 791 789 788 789 789 788 786 785 784 784 784 784 783 783 783 782 782 782 782 781 781 781 780 780 779 779 778 778 777 777 776 776 775 774 774 773 773 772 772 771 771 770 770 769 769 768 768 767 767 766 766
800 800 800 801 800 800 800 800 800 800 799 799 799 799 799 800 800 800 800 800 800 800 799 799 798 797 797 796 796 796 796 796 796 794 792 790 788 787 788 788 787 785 784 783 783 783 783 782 782 782 781 781 781 780 780 779 779 778 778 777 777 777 776 775 775 774 774 773 772 772 772 771 770 770 769 769 768 768 767 767 766 766 765 764 764 763
800 800 800 800 800 800 799 799 799 799 799 799 799 799 799 799 799 799 799 799 799 799 798 798 797 797 797 796 795 795 795 796 795 794 792 790 787 786 787 787 786 785 783 782 782 782 782 781 781 780 780 779 779 779 778 778 777 777 776 776 775 775 774 774 773 772 772 772 771 770 770 769 768 768 767 767 766 766 765 764 764 763 763 762 762 761
799 799 799 799 799 799 799 799 799 799 799 799 799 799 799 799 799 799 799 799 799 798 798 797 797 796 796 795 794 794 794 794 794 794 792 790 787 785 786 786 785 784 782 782 781 781 780 780 779 779 778 778 777 777 777 776 776 775 774 774 773 773 772 772 772 771 770 770 769 768 768 767 767 766 765 765 764 763 763 762 762 761 761 760 759 759
799 799 799 799 799 798 798 798 798 798 798 798 798 798 798 798 799 798 798 798 798 797 797 797 796 795 795 794 794 793 793 793 793 793 792 789 787 785 785 785 785 783 782 781 780 780 779 778 777 777 777 776 776 775 775 774 774 773 772 772 772 771 771 770 770 769 768 768 767 767 766 765 764 764 763 762 762 761 761 760 759 759 758 757 757 757
798 798 798 798 798 798 798 798 798 798 798 798 798 798 798 798 798 798 798 797 797 797 797 796 795 794 793 793 793 792 792 792 792 792 791 789 786 785 785 785 784 783 781 779 779 779 778 777 776 775 775 774 774 774 773 772 772 772 771 771 770 770 769 769 768 767 767 766 765 764 764 763 762 762 761 760 760 759 758 758 757 757 756 755 755 754
798 797 797 797 797 797 798 798 798 798 798 797 797 797 797 797 797 797 797 797 797 797 796 796 795 793 793 792 792 792 791 792 792 791 791 789 787 784 784 784 784 783 781 779 778 778 777 776 774 773 773 772 772 772 771 771 770 770 769 769 769 768 767 767 766 765 764 764 763 762 762 761 760 760 759 758 758 757 757 756 755 754 754 753 752 752
797 797 797 797 797 797 797 797 797 797 797 797 797 797 797 796 796 796 796 796 796 796 796 795 794 793 792 792 791 791 791 791 791 791 790 789 787 785 783 783 783 782 781 779 777 777 776 775 773 772 771 771 770 770 770 769 769 768 768 767 767 766 765 764 764 763 762 762 761 760 760 759 758 758 757 757 756 755 754 754 753 752 752 751 750 749
797 796 796 796 796 796 796 796 796 796 796 796 796 796 796 796 796 795 795 795 795 795 795 794 794 793 792 791 791 790 790 790 790 789 789 789 787 785 783 783 783 782 781 778 777 775 775 774 772 771 770 769 769 768 768 768 767 767 766 765 764 764 763 762 762 761 760 760 759 758 758 757 757 756 755 754 754 753 752 752 751 750 749 748 747 747
796 796 796 796 796 796 796 795 795 795 795 795 795 795 795 795 795 794 794 794 795 795 794 794 793 793 792 791 790 790 789 789 789 788 788 788 786 784 783 783 783 782 781 778 776 773 772 772 771 770 769 768 768 767 767 766 765 765 764 763 762 762 761 760 760 759 758 758 757 757 756 755 755 754 753 752 752 751 750 750 749 748 747 746 745 745
795 795 795 795 795 795 795 795 794 794 794 794 794 794 794 794 794 794 794 794 794 794 794 793 793 793 792 791 790 789 788 788 788 788 788 787 786 784 783 783 782 782 781 780 777 773 770 769 769 769 768 768 767 766 765 764 764 762 762 761 760 759 759 759 758 757 757 756 756 755 754 753 753 752 751 751 750 749 748 748 747 746 745 744 743 742
795 795 794 794 794 794 794 794 794 793 793 793 793 793 793 793 793 793 793 793 793 793 793 793 792 792 792 792 791 789 787 787 788 788 788 787 785 784 783 783 782 781 782 781 779 776 771 767 767 767 767 767 766 765 764 763 762 761 760 759 758 757 757 757 756 756 755 754 754 753 752 752 751 750 749 749 748 747 746 746 745 745 743 742 742 741
794 794 794 794 794 793 793 793 793 793 793 792 792 792 792 792 792 792 792 792 793 793 793 792 792 792 792 792 791 789 787 787 787 787 787 787 785 784 783 783 782 781 781 781 781 779 775 769 766 765 766 766 765 763 763 762 761 760 759 758 757 756 755 755 755 754 753 752 752 751 751 750 749 748 747 747 746 745 744 744 743 743 742 741 740 739
794 794 793 793 793 793 793 792 792 792 792 792 792 792 792 792 792 792 792 792 792 792 792 792 792 791 791 791 790 788 787 787 787 787 787 787 785 784 783 782 782 781 780 780 780 779 777 773 769 766 764 764 763 762 762 761 760 759 758 757 756 754 754 754 753 752 752 751 750 749 748 747 747 746 745 744 744 743 742 742 742 741 740 739 738 737
793 793 793 793 792 792 792 792 792 792 792 792 792 792 792 792 792 792 792 792 792 792 792 792 791 791 790 790 788 787 786 786 787 787 787 787 785 784 782 782 781 780 780 779 778 777 776 774 771 768 765 762 761 761 761 760 759 758 757 757 755 754 752 752 752 751 750 749 748 747 746 745 744 744 743 742 742 741 740 740 739 739 738 738 737 735
793 792 792 792 792 792 792 792 792 792 792 792 792 792 792 791 791 791 791 791 791 791 791 791 791 790 790 789 788 787 785 785 786 786 786 786 785 784 782 781 781 780 780 778 777 777 775 773 771 769 767 763 760 759 759 758 758 757 756 755 754 753 752 751 750 749 748 747 746 745 744 743 742 741 741 740 739 739 738 738 737 737 737 736 735 734
792 792 792 792 792 791 791 791 791 791 791 791 791 791 791 791 791 791 791 791 790 790 790 790 790 789 789 788 787 786 784 784 784 785 785 785 784 783 782 781 780 780 779 778 777 776 774 772 770 769 767 764 761 757 757 757 757 756 755 754 753 752 751 750 749 748 746 745 744 743 742 741 740 740 739 738 738 737 737 736 735 735 734 734 733 732
792 792 791 791 791 791 791 791 791 791 791 791 791 791 791 791 790 790 790 790 789 789 789 788 788 788 787 787 786 785 784 783 783 784 784 784 783 783 782 780 779 779 779 778 776 775 774 772 770 768 766 765 762 759 756 755 754 754 753 752 751 750 748 748 747 746 745 744 742 741 741 740 739 738 737 736 736 735 734 733 733 732 732 731 731 730
791 791 791 791 791 791 791 791 791 791 791 791 791 790 790 790 790 789 789 789 788 788 788 787 787 787 786 786 785 784 783 782 782 782 782 782 782 782 781 779 778 778 777 777 776 775 773 772 770 767 765 763 761 759 757 756 754 752 751 750 749 748 747 746 745 745 744 742 741 740 739 738 737 736 735 734 733 732 732 731 730 729 729 728 728 727
791 791 791 791 791 791 791 791 791 791 790 790 790 790 789 789 789 788 788 787 787 787 787 786 786 785 784 784 783 783 782 781 781 780 780 780 780 780 779 778 777 776 776 775 775 774 773 771 769 767 765 762 760 758 757 756 754 752 750 748 747 746 745 745 744 743 742 741 740 738 737 736 735 734 733 732 732 731 730 728 728 727 727 726 725 724
791 791 791 791 791 791 791 791 790 790 790 790 789 789 789 788 788 787 787 787 787 786 786 785 784 784 783 782 782 781 781 780 779 779 779 778 778 778 778 777 776 775 774 774 773 772 771 770 768 766 765 762 760 757 755 754 753 752 751 748 746 743 742 742 742 741 740 739 738 737 735 734 733 733 732 731 730 729 728 727 726 725 725 724 723 722
791 791 791 790 790 790 790 790 790 790 789 789 789 788 788 787 787 787 786 786 786 785 785 784 783 783 782 781 780 780 779 778 778 777 777 777 776 776 776 775 774 773 772 772 771 770 769 768 766 765 763 762 760 757 755 753 752 751 751 749 746 743 741 740 740 739 738 737 736 735 734 733 732 731 730 729 728 727 726 725 724 723 723 722 722 720
790 790 790 790 790 790 789 789 789 789 788 788 788 787 787 787 787 786 785 785 784 784 783 783 782 782 780 779 778 778 777 777 777 776 775 775 775 774 774 773 772 772 771 770 769 768 767 766 765 763 762 760 758 756 753 751 750 750 749 748 745 742 740 738 737 737 737 736 734 734 733 732 730 729 727 726 725 724 723 723 722 721 721 720 719 718
790 790 790 790 789 789 789 788 788 788 787 787 787 787 787 786 786 785 785 784 783 783 782 782 782 781 779 778 777 776 776 776 775 775 774 774 773 773 772 772 771 771 770 769 767 766 765 764 763 761 760 759 757 755 752 749 748 747 747 746 745 743 740 736 734 735 735 734 733 732 731 730 728 727 725 724 723 722 721 720 720 719 718 717 716 715
789 789 789 789 789 788 788 788 787 787 787 787 786 786 786 785 785 784 784 783 782 782 782 781 780 780 778 777 776 775 774 774 773 773 773 772 772 772 771 770 770 769 768 768 766 765 763 762 761 759 758 757 756 753 751 748 747 745 744 744 743 742 740 736 734 733 732 732 731 730 729 727 726 725 723 722 721 719 718 717 717 716 715 714 714 712
789 789 788 788 788 788 787 787 787 787 786 786 785 785 784 784 784 783 783 782 781 781 781 780 780 778 777 776 775 774 773 772 772 772 771 771 771 770 770 769 768 768 767 766 765 764 762 760 758 757 756 756 754 752 749 747 745 743 742 741 741 740 737 736 734 733 731 730 728 727 727 726 724 723 721 719 718 717 716 715 714 713 712 711 711 710
788 788 788 787 787 787 787 787 786 786 785 785 784 784 783 783 783 782 782 781 781 780 779 779 779 778 776 775 774 773 772 771 770 770 769 769 769 768 768 767 767 766 765 764 763 762 761 759 757 756 754 753 751 749 747 746 744 742 740 739 738 737 735 734 732 731 730 728 727 725 724 724 723 722 719 717 716 714 713 713 712 711 710 709 708 707
787 787 787 787 787 787 786 786 785 785 784 784 783 783 782 782 782 781 781 780 780 779 778 778 777 777 775 774 773 772 771 770 769 768 767 767 767 767 766 766 765 764 763 762 761 760 759 757 756 755 753 752 749 746 744 743 742 741 738 737 736 735 733 731 730 729 728 727 725 724 722 722 721 719 717 715 714 712 711 710 710 709 708 707 706 705
787 787 787 786 786 786 785 785 784 784 783 783 782 782 782 781 781 780 780 779 779 778 778 777 776 775 774 773 772 772 771 769 768 767 766 766 765 765 764 763 763 762 761 760 759 757 756 755 754 753 752 750 747 744 741 740 739 738 737 736 734 733 731 729 727 727 726 725 723 722 721 720 719 717 715 713 712 710 709 708 707 707 706 705 704 703
787 786 786 786 785 785 784 784 783 783 782 782 781 781 780 780 780 780 779 778 778 777 777 776 775 774 773 772 771 770 769 768 767 766 765 765 764 763 762 762 761 760 758 757 756 754 753 752 750 750 749 748 746 743 739 737 737 736 735 734 732 731 729 727 725 724 724 722 721 720 720 719 717 716 714 712 710 707 706 705 704 704 703 703 702 701
786 786 785 785 784 784 783 783 783 782 782 781 780 780 779 779 778 778 778 777 777 776 775 774 774 773 772 770 769 769 768 767 766 765 764 763 762 762 761 760 759 758 756 755 753 752 750 748 747 746 745 745 743 741 738 736 734 733 732 732 730 729 727 725 723 722 722 721 719 718 717 717 715 714 713 711 708 706 704 702 702 701 701 700 699 698
785 785 784 784 784 783 782 782 782 781 781 780 779 779 778 777 777 777 776 776 775 775 774 773 772 772 770 769 768 767 767 766 765 763 762 762 761 761 759 758 757 757 755 753 751 750 748 746 744 742 741 741 741 739 737 735 733 731 730 728 728 727 726 723 722 720 720 719 718 717 716 714 713 712 711 710 707 704 702 700 699 698 697 697 697 695